Hastings, NE

6:40 PM CDT on August 31, 2016 (GMT -0500)
Hastings Municipal

Weather History for KHSI - March, 2012

Change the Weather History Date:

Tuesday, March 27, 2012

  Actual Average Record
Temperature  
Mean Temperature 61 °F 44 °F  
Max Temperature 76 °F 56 °F 86 °F (1989)
Min Temperature 46 °F 32 °F 4 °F (1913)
Degree Days  
Heating Degree Days 4 21  
Month to date heating degree days 353 697  
Since 1 July heating degree days 4713 5327  
Cooling Degree Days 0 0  
Month to date cooling degree days 16 0  
Year to date cooling degree days 16 0  
Growing Degree Days 12 (Base 50)    
Moisture  
Dew Point 33 °F    
Average Humidity 50    
Maximum Humidity 86    
Minimum Humidity 14    
Precipitation  
Precipitation 0.00 in 0.08 in 1.12 in (1991)
Month to date precipitation 0.85 1.42  
Year to date precipitation 2.66 2.32  
Snow  
Snow 0.00 in 0.10 in 3.00 in (1948)
Month to date snowfall 0.0 4.6  
Since 1 July snowfall 22.5 27.0  
Snow Depth 0.00 in    
Sea Level Pressure  
Sea Level Pressure 29.85 in    
Wind  
Wind Speed 8 mph (West)    
Max Wind Speed 23 mph    
Max Gust Speed 35 mph    
Visibility 10 miles    
Events      
T = Trace of Precipitation, MM = Missing Value Source: NWS Daily Summary

Daily Weather History Graph

Daily Weather History Graph

Search for Another Location

Airport or City:

Trip Planner

Search our weather history database for the weather conditions in past years. The results will help you decide how hot, cold, wet, or windy it might be!

Date:

Astronomy

Mar. 27, 2012 Rise Set
Actual Time 7:24 AM CDT 7:53 PM CDT
Civil Twilight 6:57 AM CDT 8:21 PM CDT
Nautical Twilight 6:25 AM CDT 8:53 PM CDT
Astronomical Twilight 5:51 AM CDT 9:26 PM CDT
Moon 9:55 AM CDT (3/27) 12:05 AM CDT (3/27)
Length of Visible Light 13h 23m
Length of Day
12h 29m
Waxing Crescent, 22% of the Moon is Illuminated
Mar 27
Waxing Crescent
Mar 30
First Quarter
Apr 6
Full
Apr 13
Last Quarter
Apr 21
New

Hourly Weather History & Observations

Time (CDT) Temp. Dew Point Humidity Pressure Visibility Wind Dir Wind Speed Gust Speed Precip Events Conditions
12:53 AM 66.0 °F 54.0 °F 65% 29.62 in 10.0 mi South 21.9 mph 34.5 mph N/A   Clear
1:53 AM 64.9 °F 54.0 °F 68% 29.66 in 10.0 mi SSW 18.4 mph 32.2 mph N/A   Clear
2:53 AM 64.0 °F 54.0 °F 70% 29.70 in 10.0 mi SSW 11.5 mph 18.4 mph N/A   Clear
3:53 AM 60.1 °F 53.1 °F 78% 29.73 in 10.0 mi West 9.2 mph - N/A   Clear
4:53 AM 55.0 °F 51.1 °F 86% 29.76 in 10.0 mi WSW 6.9 mph - N/A   Clear
5:53 AM 55.0 °F 39.9 °F 57% 29.79 in 10.0 mi West 8.1 mph 16.1 mph N/A   Clear
6:53 AM 50.0 °F 32.0 °F 50% 29.82 in 10.0 mi WNW 5.8 mph - N/A   Clear
7:53 AM 50.0 °F 30.9 °F 48% 29.84 in 10.0 mi SW 3.5 mph - N/A   Clear
8:53 AM 55.9 °F 30.0 °F 37% 29.88 in 10.0 mi SW 3.5 mph - N/A   Clear
9:53 AM 62.1 °F 30.0 °F 30% 29.88 in 10.0 mi West 8.1 mph - N/A   Clear
10:53 AM 64.9 °F 27.0 °F 24% 29.89 in 10.0 mi WNW 10.4 mph 18.4 mph N/A   Clear
11:53 AM 68.0 °F 28.0 °F 22% 29.90 in 10.0 mi WNW 11.5 mph - N/A   Clear
12:53 PM 71.1 °F 26.1 °F 19% 29.87 in 10.0 mi NW 13.8 mph 20.7 mph N/A   Clear
1:53 PM 73.0 °F 25.0 °F 17% 29.87 in 10.0 mi NW 15.0 mph 24.2 mph N/A   Clear
2:53 PM 75.0 °F 23.0 °F 14% 29.86 in 10.0 mi WNW 19.6 mph 27.6 mph N/A   Clear
3:53 PM 73.0 °F 23.0 °F 15% 29.86 in 10.0 mi West 8.1 mph 19.6 mph N/A   Clear
4:53 PM 73.0 °F 24.1 °F 16% 29.88 in 10.0 mi NW 15.0 mph - N/A   Clear
5:53 PM 73.0 °F 21.9 °F 15% 29.88 in 10.0 mi NW 15.0 mph - N/A   Clear
6:53 PM 70.0 °F 26.1 °F 19% 29.90 in 10.0 mi WNW 9.2 mph - N/A   Clear
7:53 PM 63.0 °F 27.0 °F 26% 29.92 in 10.0 mi NW 5.8 mph - N/A   Clear
8:53 PM 61.0 °F 27.0 °F 27% 29.93 in 10.0 mi Calm Calm - N/A   Clear
9:53 PM 54.0 °F 33.1 °F 45% 29.95 in 10.0 mi West 3.5 mph - N/A   Clear
10:53 PM 52.0 °F 33.1 °F 49% 29.96 in 10.0 mi Calm Calm - N/A   Clear
11:53 PM 50.0 °F 28.0 °F 43% 29.96 in 10.0 mi Calm Calm - N/A   Clear